KL1V-13 Weather Reports


Display with metric or nautical units.
time (UTC)temp
F
wind
direction
speed
MPH
gust
MPH
rain 1hr
in
rain 24hr
in
rain mn
in
humidity
%
barometer
mb
20260509093715 36 0.0 0.0 0.02 0.08 0.02 91 998.6
20260509092714 36 0.0 0.0 0.02 0.08 0.02 91 998.4
20260509091715 36 0.0 0.0 0.02 0.08 0.02 90 998.7
20260509090715 36 0.0 0.0 0.02 0.08 0.02 90 999.0
20260509085714 36 0.0 0.0 0.01 0.07 0.01 90 999.0
20260509084714 36 0.0 0.0 0.01 0.07 0.01 90 999.3
20260509083715 36 0.0 0.0 0.01 0.06 0.00 90 999.7
20260509082715 36 0.0 0.0 0.01 0.06 0.00 90 999.7
20260509081734 36 0.0 0.0 0.01 0.06 0.00 90 999.7
20260509080716 36 0.0 0.0 0.02 0.06 0.00 89 1000.0
20260509075714 36 0.0 0.0 0.02 0.06 0.06 89 1000.0
20260509074714 36 0.0 0.0 0.02 0.06 0.06 89 1000.4
20260509073716 36 0.0 0.0 0.01 0.05 0.05 89 1000.4
20260509072715 36 0.0 0.0 0.01 0.05 0.05 89 1000.7
20260509071714 37 0.0 0.0 0.01 0.05 0.05 88 1000.7
20260509070714 37 0.0 0.0 0.00 0.04 0.04 88 1000.7
20260509065735 37 0.0 0.0 0.00 0.04 0.04 88 1001.0
20260509064755 37 0.0 0.0 0.00 0.04 0.04 88 1001.0
20260509063715 37 0.0 0.0 0.01 0.04 0.04 88 1001.4
20260509062714 37 0.0 0.0 0.01 0.04 0.04 88 1001.4
20260509061716 38 315 1.0 3.0 0.01 0.04 0.04 88 1001.4
20260509060714 38 0.0 0.0 0.01 0.04 0.04 88 1001.4
20260509055714 38 0.0 0.0 0.01 0.04 0.04 88 1001.4
20260509054715 38 0.0 0.0 0.02 0.04 0.04 88 1001.7
20260509053714 39 0.0 0.0 0.01 0.03 0.03 87 1001.7
20260509052715 39 0.0 0.0 0.01 0.03 0.03 87 1002.1
20260509051714 39 0.0 0.0 0.01 0.03 0.03 87 1002.1
20260509050714 39 0.0 0.0 0.01 0.03 0.03 86 1002.1
20260509045734 40 0.0 0.0 0.01 0.03 0.03 86 1002.1
20260509044714 40 0.0 0.0 0.00 0.02 0.02 85 1002.1
20260509043715 40 0.0 0.0 0.00 0.02 0.02 84 1002.4
20260509042734 40 0.0 0.0 0.00 0.02 0.02 83 1002.7
20260509041714 40 0.0 0.0 0.00 0.02 0.02 82 1002.7
20260509040714 41 0.0 0.0 0.00 0.02 0.02 80 1003.1
20260509035715 41 337 0.0 1.0 0.00 0.02 0.02 78 1003.1
20260509034715 42 351 1.0 2.0 0.00 0.02 0.02 75 1003.1
20260509033714 43 337 0.0 2.0 0.00 0.02 0.02 74 1003.1
20260509032734 43 0.0 0.0 0.00 0.02 0.02 73 1003.4
20260509031714 43 315 1.0 3.0 0.00 0.02 0.02 72 1003.4
20260509030714 43 341 4.0 5.0 0.00 0.02 0.02 72 1003.4
20260509025714 43 15 2.0 4.0 0.00 0.02 0.02 73 1003.4
20260509024715 44 322 3.0 6.0 0.00 0.02 0.02 72 1003.8
20260509023735 44 22 0.0 2.0 0.00 0.02 0.02 71 1003.8
20260509022714 45 323 4.0 8.0 0.00 0.02 0.02 69 1003.8
20260509021756 45 127 1.0 3.0 0.00 0.02 0.02 66 1004.1
20260509020714 45 90 0.0 2.0 0.00 0.02 0.02 65 1004.1
20260509015714 46 109 1.0 3.0 0.00 0.02 0.02 64 1004.1
20260509014714 47 122 2.0 4.0 0.00 0.02 0.02 63 1004.1
20260509013714 46 0.0 0.0 0.00 0.02 0.02 62 1004.1
20260509012756 47 204 1.0 4.0 0.00 0.02 0.02 62 1004.4
20260509011715 47 202 0.0 1.0 0.00 0.02 0.02 61 1004.4
20260509010714 48 225 0.0 2.0 0.00 0.02 0.02 60 1004.8
20260509005715 48 0.0 0.0 0.00 0.02 0.02 60 1004.8
20260509004715 48 206 1.0 2.0 0.00 0.02 0.02 60 1004.8
20260509003714 48 182 1.0 4.0 0.00 0.02 0.02 59 1004.8
20260509002714 49 225 1.0 3.0 0.00 0.02 0.02 59 1005.1
20260509001736 49 218 2.0 4.0 0.00 0.02 0.02 59 1005.5
20260509000714 49 95 2.0 4.0 0.00 0.02 0.02 59 1005.5
20260508235755 49 128 5.0 10.0 0.00 0.02 0.02 59 1005.5
20260508234714 48 94 2.0 3.0 0.00 0.02 0.02 60 1005.6
20260508233714 48 75 2.0 4.0 0.00 0.02 0.02 59 1005.8
20260508232715 49 144 1.0 3.0 0.00 0.02 0.02 59 1005.8
20260508231714 48 180 1.0 4.0 0.00 0.02 0.02 60 1006.1
20260508230716 48 351 1.0 2.0 0.00 0.02 0.02 60 1006.1
20260508225714 48 180 1.0 6.0 0.00 0.02 0.02 59 1006.1
20260508224714 48 187 1.0 3.0 0.00 0.02 0.02 60 1006.5
20260508223714 47 67 0.0 1.0 0.00 0.02 0.02 60 1006.5
20260508222714 47 218 2.0 3.0 0.00 0.02 0.02 61 1006.5
20260508221714 47 107 5.0 7.0 0.00 0.02 0.02 61 1006.5
20260508220714 47 133 3.0 5.0 0.00 0.02 0.02 61 1006.8
20260508215734 47 151 3.0 5.0 0.00 0.02 0.02 62 1006.8
20260508214735 46 339 2.0 4.0 0.00 0.02 0.02 63 1006.8
20260508213714 46 112 1.0 2.0 0.00 0.02 0.02 64 1007.1
20260508212714 46 179 1.0 4.0 0.00 0.02 0.02 64 1007.2
20260508211714 46 105 2.0 4.0 0.00 0.02 0.02 65 1007.2
20260508210714 46 112 2.0 3.0 0.00 0.02 0.02 65 1007.5
20260508205735 46 124 5.0 6.0 0.00 0.02 0.02 65 1007.5
20260508204714 46 79 1.0 3.0 0.00 0.02 0.02 66 1007.8
20260508203714 45 112 2.0 3.0 0.00 0.02 0.02 65 1007.8
20260508202735 45 112 1.0 4.0 0.00 0.02 0.02 67 1007.8
20260508201714 44 112 0.0 1.0 0.00 0.02 0.02 68 1007.9
20260508200714 44 112 2.0 3.0 0.00 0.02 0.02 68 1008.2
20260508195714 44 112 1.0 3.0 0.00 0.02 0.02 69 1008.2
20260508194715 44 112 1.0 3.0 0.00 0.02 0.02 69 1008.5
20260508193714 44 112 0.0 1.0 0.00 0.02 0.02 68 1008.5
20260508192714 44 175 0.0 2.0 0.00 0.02 0.02 68 1008.5
20260508191735 45 112 0.0 2.0 0.00 0.02 0.02 68 1008.5
20260508190734 45 0.0 0.0 0.00 0.02 0.02 68 1008.9
20260508185735 46 212 1.0 3.0 0.00 0.02 0.02 69 1008.9
20260508184714 45 143 2.0 3.0 0.00 0.02 0.02 69 1009.2
20260508183714 45 117 3.0 4.0 0.00 0.02 0.02 68 1009.2
20260508182715 45 99 2.0 3.0 0.00 0.02 0.02 69 1009.2
20260508181714 44 22 0.0 1.0 0.00 0.02 0.02 73 1009.2
20260508180714 43 90 2.0 3.0 0.00 0.02 0.02 75 1009.5
20260508175735 43 112 1.0 4.0 0.00 0.02 0.02 76 1009.5
20260508174714 43 90 2.0 3.0 0.00 0.02 0.02 77 1009.9
20260508173714 43 67 0.0 1.0 0.00 0.02 0.02 81 1009.9
20260508172715 42 155 2.0 3.0 0.00 0.02 0.02 83 1009.9
20260508171716 42 112 2.0 3.0 0.00 0.02 0.02 84 1010.2
20260508170714 41 0.0 0.0 0.00 0.02 0.02 87 1010.2
20260508165714 40 0.0 0.0 0.00 0.02 0.02 88 1010.2
20260508164714 40 0.0 0.0 0.00 0.02 0.02 89 1010.2
20260508163714 39 0.0 0.0 0.00 0.02 0.02 90 1010.2
20260508162715 39 0.0 1.0 0.00 0.02 0.02 91 1010.3
20260508161714 38 0.0 0.0 0.00 0.02 0.02 92 1010.3
20260508160714 37 0.0 0.0 0.00 0.02 0.02 92 1010.3
20260508155715 37 0.0 0.0 0.00 0.02 0.02 92 1010.6
20260508154714 36 0.0 0.0 0.00 0.02 0.02 92 1010.6
20260508153714 36 0.0 0.0 0.00 0.02 0.02 92 1010.8
20260508152735 35 0.0 0.0 0.00 0.02 0.02 92 1010.9
20260508151714 35 0.0 0.0 0.00 0.02 0.02 92 1010.9
20260508150735 35 0.0 0.0 0.00 0.02 0.02 92 1010.9
20260508145714 34 0.0 0.0 0.00 0.02 0.02 92 1011.2
20260508144735 34 0.0 0.0 0.00 0.02 0.02 91 1011.2
20260508143714 34 0.0 0.0 0.00 0.02 0.02 91 1011.2
20260508142715 34 0.0 0.0 0.00 0.02 0.02 91 1011.5
20260508141714 34 0.0 0.0 0.00 0.02 0.02 91 1011.6
20260508140714 35 0.0 0.0 0.00 0.02 0.02 91 1011.9
20260508135714 35 0.0 0.0 0.00 0.02 0.02 91 1011.9
20260508134714 34 0.0 0.0 0.00 0.02 0.02 91 1011.9
20260508133735 34 0.0 0.0 0.00 0.02 0.02 91 1011.9
20260508132714 35 0.0 0.0 0.00 0.02 0.02 91 1012.3
20260508131735 34 0.0 0.0 0.00 0.02 0.02 91 1012.3
20260508130735 34 0.0 0.0 0.00 0.02 0.02 91 1012.6
20260508125714 34 0.0 0.0 0.00 0.02 0.02 90 1012.6
20260508124735 34 0.0 0.0 0.00 0.02 0.02 90 1012.6
20260508123714 35 0.0 0.0 0.00 0.02 0.02 90 1012.6
20260508122714 35 0.0 0.0 0.00 0.02 0.02 90 1012.9
20260508121714 35 0.0 0.0 0.00 0.02 0.02 90 1012.9
20260508120714 35 0.0 0.0 0.01 0.02 0.02 90 1012.9
20260508115714 35 0.0 0.0 0.01 0.02 0.02 90 1013.3
20260508114715 35 0.0 0.0 0.01 0.02 0.02 90 1013.3
20260508113714 35 315 0.0 2.0 0.01 0.02 0.02 90 1013.5
20260508112714 35 0.0 0.0 0.02 0.02 0.02 90 1013.6
20260508111755 35 0.0 0.0 0.02 0.02 0.02 90 1013.6
20260508110735 35 0.0 0.0 0.01 0.01 0.01 90 1013.6
20260508105714 35 0.0 0.0 0.01 0.01 0.01 89 1014.0
20260508104755 35 0.0 0.0 0.01 0.01 0.01 89 1014.0
20260508103735 36 0.0 0.0 0.01 0.01 0.01 89 1014.0
20260508102735 36 0.0 0.0 0.00 0.00 0.00 89 1014.0
20260508101735 36 337 1.0 1.0 0.00 0.00 0.00 89 1014.3
20260508100714 36 0.0 0.0 0.00 0.00 0.00 89 1014.6
20260508095714 36 0.0 0.0 0.00 0.00 0.00 89 1014.6
20260508094714 35 0.0 0.0 0.00 0.00 0.00 89 1014.6
20260508093755 36 0.0 0.0 0.00 0.00 0.00 89 1014.6